This is the latest recevied weather packets stored in our database for station/object KK7KRZ. If no packets are shown the sender has not sent any weather packets the latest 10 day(s).
| Time | Temp. | Humidity | Pressure | Rain* | Wind** | Luminosity | Snow |
|---|---|---|---|---|---|---|---|
| 1777909486 | 12.78° C | 88% | 1013.2 hPa | 0 mm | - | 76 W/m² | - |
| 1777909184 | 12.78° C | 88% | 1013.4 hPa | 0 mm | - | 78 W/m² | - |
| 1777908882 | 12.78° C | 88% | 1013.4 hPa | 0 mm | - | 73 W/m² | - |
| 1777908580 | 12.78° C | 88% | 1013.3 hPa | 0 mm | - | 76 W/m² | - |
| 1777908276 | 12.78° C | 88% | 1013.2 hPa | 0 mm | - | 69 W/m² | - |
| 1777907972 | 12.78° C | 88% | 1013.2 hPa | 0 mm | - | 68 W/m² | - |
| 1777907668 | 12.78° C | 88% | 1013.4 hPa | 0 mm | - | 62 W/m² | - |
| 1777907364 | 12.78° C | 89% | 1013.3 hPa | 0 mm | - | 55 W/m² | - |
| 1777907060 | 12.78° C | 88% | 1013.3 hPa | 0 mm | - | 53 W/m² | - |
| 1777906758 | 12.78° C | 89% | 1013.2 hPa | 0 mm | - | 55 W/m² | - |
| 1777906454 | 12.22° C | 89% | 1013.2 hPa | 0 mm | - | 51 W/m² | - |
| 1777906151 | 12.22° C | 89% | 1013.2 hPa | 0 mm | - | 52 W/m² | - |
| 1777905848 | 12.22° C | 89% | 1013.1 hPa | 0 mm | - | 55 W/m² | - |
| 1777905545 | 12.22° C | 89% | 1013 hPa | 0 mm | - | 44 W/m² | - |
| 1777905241 | 12.22° C | 90% | 1013 hPa | 0 mm | - | 46 W/m² | - |
| 1777904939 | 12.22° C | 90% | 1012.7 hPa | 0 mm | - | 40 W/m² | - |
| 1777904636 | 12.22° C | 90% | 1012.8 hPa | 0 mm | - | 36 W/m² | - |
| 1777904333 | 12.22° C | 90% | 1012.5 hPa | 0 mm | - | 33 W/m² | - |
| 1777904030 | 12.22° C | 90% | 1012.7 hPa | 0 mm | - | 30 W/m² | - |
| 1777903727 | 12.22° C | 91% | 1012.6 hPa | 0 mm | - | 27 W/m² | - |
| 1777903423 | 12.22° C | 91% | 1012.8 hPa | 0 mm | - | 22 W/m² | - |
| 1777903119 | 12.22° C | 91% | 1012.6 hPa | 0 mm | - | 19 W/m² | - |
| 1777902816 | 11.67° C | 91% | 1012.6 hPa | 0 mm | - | 19 W/m² | - |
| 1777902514 | 11.67° C | 91% | 1012.2 hPa | 0 mm | - | 17 W/m² | - |
| 1777902210 | 11.67° C | 91% | 1012.1 hPa | 0 mm | - | 15 W/m² | - |
* Rain latest hour (hover to see other rain measurements)
** Current wind speed in m/s (hover to see current wind gust speed)